Location: Saratoga Springs
(43.0831°N, 73.7850°W)
Time: 07:30:14
(UTC-04:00)

Vanguard 1 Rocket - Pass Details

Date: 18 April 2024
Orbit: 651 x 4220 km, 34.3° (Epoch: 20 May)

Event Time Altitude Azimuth Distance (km) Brightness Sun altitude
Rises 19:25:54 0° 225° (SW) 3,056 10.6 2.0°
Reaches altitude 10° 19:28:13 10° 212° (SSW) 2,285 9.7 1.6°
Maximum altitude 19:32:35 27° 153° (SSE) 1,735 8.5 0.8°
Drops below altitude 10° 19:39:02 10° 99° (E) 3,466 9.7 -0.3°
Sets 19:43:30 0° 89° (E) 5,035 10.6 -1.1°
